Powrót do katalogu

STARLINK-2222

AktywnyŁącznośćVLEO
NORAD 48572·PAYLOAD·🇺🇸 United States

Wystrzelony May 15, 2021 z Cape Canaveral Space Force Station

Loading…

Następne Przeloty (najbliższe 24 godziny)

TLE

ŚwieżeSource: CelesTrak SupGP

Epoka: Sep 14, 2026, 21:34 UTC

1 48572C 21041V   26257.89909722 -.00029732  00000+0 -95602-3 0  2578
2 48572  53.1588 348.3801 0001257  77.1560 327.5662 15.31719174    17

Śledź STARLINK-2222 w czasie rzeczywistym z AllMySat

Download on the App Store